Pagrindinis puslapis
METAR-TAF:

METAR-TAF

Oro uostai :

Clovis, Naujoji Meksika, Jungtinės Amerikos Valstijos

platuma: 34-26N, ilguma: 103-05W, Aukštis: 1284 m

Dabartinis oras

Ataskaita buvo paskelbta 24 minutes, ne 02:56 UTC
Vėjas 10 kt iš Pietų/Pietryčių
Temperatūra 27°C
Drėgmė 39%
Slėgis 1018 hPa
Matomumas: 16.1 km
Giedras dangus

METAR: KCVN 160256Z AUTO 16010KT 10SM CLR 27/12 A3006 RMK AO2 SLP130 T02670117 53013

Laikas: 21:20 (03:20 UTC)


TAF: trūkstamas

Orai ataskaitas ir orų prognozės (METAR, TAF).

turimą stotys yra geltonos ir raudonos taškus žemėlapyje.

Perkelti pele per norėdami pamatyti stoties vardą.

Tada spustelėkite, norėdami matyti oro stebėjimo ir prognozės.

Norėdami pakeisti žemėlapį: spustelėkite ant žalios mygtukų su juodo kryžiaus žemyn,; žalią mygtuką su brūkšneliu, jei norite nutolinti; arba žalių rodyklių gretimoms žemėlapius.


METAR-TAF: